Theta_e
355 352 352 349 348 347 346 345 345 346 347 347 346 346 345 346 347 347 347 357 352 352 354 356 360 362 360 358 357 356 356 355 354 353 352 352 351 349 348 348 348 348 347
348 348 348 344 344 342 341 341 341 342 343 345 344 345 346 347 348 350 347 348 355 350 350 353 356 361 360 358 357 355 353 352 352 353 352 352 351 350 348 348 348 348 349
340 342 341 339 336 337 336 337 338 339 339 341 340 340 342 344 346 349 349 350 351 355 354 355 357 358 358 356 356 354 353 353 351 350 352 352 352 351 350 348 347 348 349
332 335 335 331 330 331 330 329 330 331 333 333 331 332 333 338 343 347 341 343 346 346 342 334 341 347 350 351 352 352 352 353 351 350 350 350 351 350 349 348 346 348 349
325 328 326 325 326 325 323 322 323 323 321 320 318 321 328 334 344 343 336 331 329 328 327 325 328 330 334 344 345 346 345 345 347 349 350 350 350 350 349 348 347 347 348
321 323 322 321 320 318 317 317 321 320 318 316 317 322 334 335 341 336 336 333 329 324 323 320 322 324 326 329 328 332 336 340 342 344 346 346 349 349 349 348 347 347 347
315 318 317 317 317 315 316 317 318 317 314 316 319 326 333 335 334 333 330 325 319 318 321 323 318 316 317 320 325 328 332 334 336 338 335 335 338 344 348 348 347 347 347
316 315 316 314 315 313 314 314 315 313 313 314 312 318 318 323 322 324 323 319 317 316 316 317 319 320 320 319 321 325 323 324 325 327 328 329 332 335 339 348 347 347 346
313 315 313 313 312 311 309 311 312 313 309 311 314 311 311 308 310 317 319 315 315 314 315 315 317 318 320 320 321 322 317 318 320 321 322 323 326 329 332 335 342 346 346
311 311 310 310 312 310 310 309 310 310 311 307 309 311 313 311 304 305 312 312 312 312 313 313 314 317 317 317 316 315 313 315 316 317 317 318 320 323 326 329 332 338 346
311 311 312 312 311 309 310 309 309 309 308 307 306 306 309 310 308 305 303 305 310 310 311 313 313 314 315 316 314 313 313 313 314 313 314 315 317 319 321 323 327 331 336
309 310 310 311 311 310 309 308 309 309 308 308 307 306 305 303 303 303 302 304 304 308 309 311 312 312 313 313 312 312 312 312 312 312 312 313 315 316 317 319 322 326 331
307 308 310 310 309 310 309 308 307 307 307 306 307 305 306 305 305 304 303 302 301 305 308 312 310 311 311 311 312 312 313 313 312 312 311 311 312 314 315 316 317 320 325
308 309 309 309 309 307 307 307 304 304 306 305 306 306 305 305 305 304 302 300 299 301 305 307 309 309 309 310 311 312 312 314 313 312 311 310 311 311 312 313 314 315 317
309 309 307 307 307 306 305 306 303 304 305 304 305 305 303 303 304 305 305 303 299 296 298 304 302 309 308 309 310 311 311 312 310 312 312 311 311 310 311 311 312 313 314
309 308 305 304 305 305 305 305 304 304 304 303 303 304 304 303 304 304 304 304 303 300 297 302 302 306 308 308 309 310 310 310 312 312 312 311 311 310 310 310 311 312 313
310 307 305 304 303 304 305 305 304 303 303 303 304 303 303 304 302 303 303 303 302 302 298 301 303 306 307 307 308 308 309 309 310 311 312 311 310 309 309 310 310 311 311
307 307 304 303 302 302 303 303 302 302 301 301 301 301 300 301 302 303 302 303 302 304 301 299 302 303 304 307 306 308 307 307 308 309 312 310 310 310 309 309 309 310 310
304 303 303 302 302 302 303 303 303 302 301 301 300 300 300 301 301 301 301 301 301 300 300 298 299 301 302 303 305 307 306 306 307 308 308 308 309 308 309 308 308 308 308
305 304 304 303 303 304 304 304 304 304 303 302 301 301 301 300 300 300 300 300 300 299 299 298 298 298 299 303 302 301 301 303 302 305 306 307 307 309 310 310 310 310 309
303 305 305 304 304 304 302 303 303 303 303 303 303 302 302 300 298 298 298 299 299 297 297 296 296 297 297 298 297 299 298 299 301 303 303 304 306 307 309 310 311 311 310
303 304 304 304 304 304 299 297 299 303 304 304 303 303 303 301 300 298 298 298 298 297 296 295 295 294 295 296 298 296 297 295 293 302 301 301 304 304 305 308 307 307 308
306 305 306 305 306 307 301 299 299 303 305 305 305 303 302 301 301 301 300 299 299 300 299 298 296 296 296 297 296 295 295 293 292 296 298 295 301 300 304 306 305 306 306
307 307 307 307 307 307 302 300 300 305 305 306 306 304 303 303 302 298 297 298 299 299 300 298 298 297 297 297 296 295 294 294 295 296 298 292 298 298 302 306 304 305 305
307 307 308 308 308 308 302 299 300 305 305 305 306 305 303 301 299 294 296 296 297 298 299 298 297 297 295 295 296 295 292 292 290 293 297 294 295 296 300 302 307 306 306
308 307 308 309 307 309 303 299 301 305 304 303 305 304 301 300 294 294 296 295 294 296 296 296 297 296 296 297 297 297 295 291 290 289 294 293 295 296 294 301 309 313 316
Wind_Speed
2 3 3 4 4 5 5 6 6 6 7 6 6 7 8 8 8 6 6 11 6 7 11 13 14 15 14 14 13 15 15 14 14 13 13 13 12 12 12 12 12 13 14
2 2 2 3 4 5 6 6 6 7 7 6 7 7 8 7 7 7 7 7 10 5 4 9 12 15 15 14 13 13 13 13 12 13 13 14 13 13 13 12 12 12 13
4 3 3 3 5 5 7 6 6 6 6 6 7 7 8 7 7 6 8 7 4 9 17 19 10 11 12 9 9 10 9 9 11 12 13 13 13 12 13 13 12 12 11
7 4 3 5 6 5 6 7 7 7 7 7 7 7 6 6 6 6 12 10 11 11 15 23 23 21 17 13 13 14 12 8 10 11 13 13 12 12 13 13 12 12 11
7 5 5 5 6 5 5 6 6 6 6 7 8 5 4 3 4 7 8 9 9 9 9 14 17 19 19 18 16 14 13 11 10 10 11 12 13 13 13 14 13 12 12
7 4 5 6 5 5 5 7 5 6 6 7 7 4 4 4 6 2 5 6 7 7 8 10 8 9 16 16 17 16 16 17 16 15 14 13 14 14 15 15 15 14 13
6 5 5 5 5 7 7 8 4 5 6 9 4 0 5 4 4 4 4 5 8 8 9 8 6 6 6 10 13 15 17 17 17 18 19 18 18 17 17 17 17 16 15
8 7 6 7 7 6 8 9 9 4 5 9 6 5 1 6 4 5 5 6 10 8 8 10 9 9 6 3 7 15 19 19 19 18 18 19 19 19 21 18 19 18 17
9 9 7 6 8 6 7 8 7 9 5 6 12 6 3 5 8 3 4 7 9 7 8 9 10 9 10 8 8 8 20 20 20 19 19 19 19 19 19 19 16 19 19
8 7 7 6 11 7 7 6 7 7 7 7 5 7 8 6 5 4 3 5 9 7 9 7 9 8 9 8 9 11 18 20 20 20 19 19 20 20 19 20 20 18 21
8 7 7 8 7 6 7 8 8 9 7 6 7 5 5 3 5 4 7 10 9 7 9 6 7 7 9 7 9 12 19 21 20 18 20 20 21 21 21 21 21 21 20
6 6 7 7 6 6 6 7 8 10 8 8 6 6 7 6 6 6 8 9 11 7 8 7 5 7 7 8 13 17 20 22 18 19 19 21 23 22 22 22 22 22 22
6 6 6 5 6 6 6 6 6 7 8 7 8 6 5 5 5 6 7 9 11 9 4 3 6 7 7 11 12 19 23 18 19 20 22 24 24 23 22 23 23 23 23
6 6 6 6 7 6 6 4 5 5 6 6 8 7 4 5 5 6 7 9 11 9 7 12 7 8 11 11 17 23 16 20 19 21 24 23 23 23 23 23 23 23 23
6 6 6 6 6 6 5 3 6 6 6 6 7 7 6 6 6 5 4 5 7 9 12 11 13 15 12 13 15 17 18 22 27 24 18 20 21 22 23 24 25 25 24
6 6 5 4 5 5 6 5 5 7 7 6 6 7 7 7 5 6 5 5 6 8 12 13 13 17 16 15 19 18 18 24 22 21 17 17 20 23 25 26 26 26 26
6 4 5 5 5 5 5 5 6 6 7 7 6 6 6 5 6 6 6 6 7 8 12 12 14 16 18 18 17 18 17 17 15 21 19 19 19 22 25 26 25 25 27
5 3 4 6 6 6 5 6 7 6 7 7 6 5 6 6 7 6 7 9 9 11 12 17 15 14 17 18 19 20 14 15 17 22 21 24 22 20 21 24 26 25 24
5 5 5 5 6 5 5 5 4 6 5 5 5 6 6 7 7 7 9 9 10 10 12 14 15 14 14 15 17 16 16 17 15 25 26 25 24 26 26 27 28 28 27
6 5 5 4 3 2 2 2 3 4 4 5 5 6 7 8 9 10 10 11 11 13 13 13 14 14 14 15 15 15 16 15 16 17 21 23 26 28 27 24 25 28 28
4 4 4 4 3 3 2 4 4 5 6 6 6 7 7 8 10 10 9 11 13 12 13 14 15 14 14 14 17 14 14 16 18 16 17 17 16 16 17 21 23 24 28
6 5 5 5 5 6 9 5 7 8 8 8 8 7 8 12 5 12 13 13 15 15 16 15 15 17 20 15 16 13 16 14 17 14 16 18 17 17 16 17 24 24 20
7 8 6 7 8 8 10 11 11 10 11 10 9 9 10 8 9 11 13 16 17 16 17 17 19 17 20 19 17 18 19 17 17 16 19 20 14 17 16 17 28 27 26
8 8 7 9 9 8 8 11 11 12 11 12 11 11 11 12 12 10 15 16 17 16 16 12 17 20 18 20 18 17 19 21 18 15 15 20 13 17 15 17 29 29 31
8 8 8 9 9 11 7 10 10 11 13 11 10 11 11 13 7 4 14 18 18 16 13 17 21 20 23 26 23 14 14 14 17 15 13 16 14 19 15 15 17 27 29
9 8 9 9 10 12 9 10 10 10 11 10 10 11 10 11 4 7 13 17 19 18 18 21 18 17 19 16 21 15 12 14 15 17 12 13 12 10 10 12 16 13 13
Wind_Direction
334 303 4 340 349 341 348 336 342 341 327 322 325 323 315 304 304 292 303 156 183 249 260 257 246 245 232 220 217 218 220 218 222 223 230 234 228 230 233 233 234 230 228
8 356 1 5 3 353 342 332 348 330 323 328 317 322 308 301 305 306 309 294 172 185 269 278 264 254 243 228 219 223 224 226 225 226 228 234 234 230 232 237 234 231 227
60 1 27 15 5 348 336 331 325 316 305 312 306 301 294 301 296 320 292 283 279 147 53 27 350 308 297 261 247 240 243 240 242 237 225 230 229 233 234 231 236 238 227
21 18 27 21 1 347 344 339 333 329 320 326 315 301 308 304 331 303 38 31 17 3 34 31 36 38 37 39 35 27 8 267 246 236 232 227 229 226 230 235 231 236 237
37 9 20 29 346 356 360 341 336 346 341 330 309 305 333 323 12 50 65 53 39 29 19 16 22 33 34 35 35 24 13 4 6 344 262 239 232 230 228 231 233 227 234
32 14 48 22 4 20 21 359 354 357 356 339 306 337 341 52 87 53 51 44 33 34 37 23 12 17 26 27 24 19 17 16 10 8 2 333 262 238 233 230 232 224 224
54 37 61 51 52 40 35 19 347 28 20 355 302 167 112 126 47 38 39 37 17 8 14 14 25 6 0 18 28 27 22 14 9 12 8 0 353 350 246 234 231 229 222
60 64 56 67 36 61 33 32 21 1 43 22 4 277 319 162 73 43 14 42 15 356 9 14 9 2 1 0 32 48 22 7 357 352 349 348 343 342 354 257 232 228 225
63 68 56 68 75 37 48 32 26 20 42 61 36 1 321 12 328 91 88 43 9 5 1 359 13 8 10 356 354 35 13 360 351 348 343 339 335 333 332 325 322 233 228
75 66 75 62 65 53 47 45 35 43 12 42 73 65 49 20 357 327 15 32 359 5 4 354 4 359 5 358 11 24 0 350 345 342 337 334 328 324 322 322 329 330 239
72 79 71 70 71 72 73 58 48 38 53 39 42 30 39 89 41 330 321 341 337 347 352 352 350 356 358 0 347 358 342 340 335 332 330 328 325 322 317 313 311 319 323
100 73 79 80 81 81 64 63 60 54 49 41 42 34 32 19 9 348 330 326 329 340 337 340 347 351 347 343 332 343 334 330 329 327 322 322 319 317 314 310 307 307 315
102 78 79 67 85 74 72 70 67 65 57 54 37 35 39 27 359 348 325 335 321 319 340 326 351 340 345 333 332 336 324 322 324 323 320 315 311 310 309 308 304 298 294
108 94 81 84 81 68 68 69 75 65 60 73 53 41 22 29 6 2 350 338 329 325 326 340 338 342 335 327 320 326 319 321 322 322 310 309 309 307 305 304 301 299 294
120 94 84 91 89 79 53 84 65 59 57 46 60 33 10 22 4 343 341 348 333 323 322 335 332 325 325 321 317 315 316 314 317 299 302 300 300 302 302 301 297 293 293
111 110 97 88 88 83 62 29 67 54 49 44 39 31 14 19 329 341 322 309 292 290 294 307 311 311 317 315 311 311 309 307 304 300 298 302 307 304 299 296 292 290 286
139 127 107 96 80 79 69 71 76 50 55 46 32 22 24 8 359 336 330 307 301 298 297 301 307 308 309 303 308 309 305 306 305 306 307 296 291 289 291 290 286 280 280
119 131 117 123 103 81 69 62 54 54 46 38 22 10 3 358 345 339 333 324 307 306 301 293 294 297 306 308 305 300 301 302 307 303 305 305 294 284 287 290 287 282 273
136 141 117 103 86 73 78 73 52 41 39 27 10 353 347 342 338 333 326 319 317 313 306 298 300 296 303 301 299 297 305 301 295 307 304 306 303 301 287 279 276 274 269
149 146 126 121 122 118 104 39 37 16 353 352 339 335 325 321 332 333 321 317 322 314 301 297 301 302 304 303 297 301 303 304 304 307 301 297 293 285 278 267 264 266 266
197 187 184 186 218 241 224 338 335 316 309 312 311 307 311 327 290 282 300 318 312 312 309 306 305 305 302 311 311 307 293 298 297 302 298 296 294 303 302 299 282 262 265
225 222 231 245 249 258 133 212 265 291 299 294 299 312 308 288 314 310 273 290 303 300 303 305 304 309 302 301 294 303 298 297 295 297 297 292 291 288 290 285 288 285 277
226 236 245 261 261 266 190 210 234 262 275 291 293 298 304 319 306 309 314 299 295 295 287 295 296 303 308 308 305 298 295 287 285 288 288 284 290 279 281 280 276 273 266
236 245 247 248 257 262 193 204 221 256 270 274 282 288 296 305 319 329 314 306 304 306 304 311 307 301 298 296 293 287 287 285 278 274 272 275 281 276 279 274 272 266 265
245 251 257 263 267 273 215 209 214 259 261 279 282 282 294 295 302 343 304 306 306 304 302 326 303 296 298 291 283 284 281 283 285 282 272 275 278 277 276 281 278 261 254
251 270 274 269 265 270 262 208 209 264 273 287 286 282 252 267 360 289 300 303 305 309 325 311 308 309 289 289 287 281 285 286 285 284 275 275 278 284 285 277 266 258 246